• Join FlightAware (Why Join?)
  • Login
  • US Flag 
10:56PM EST


 

Airport Tracker/Info


-or-


 

Live Flight TrackerFlight Track Log ✈ AAL1870 ✈ 01-May-2013 ✈ KLAX - KORD

Flight Track Log - Related Links

Times and Time Zones

All times are in EDT time to prevent confusion due to time zone crossing. See the AAL1870 flight status page for this flight to view local times or setup timezone preferences in your user account.

Time Position Orientation Groundspeed Altitude Reporting Facility
EDT Latitude Longitude Course Direction KTS MPH feet Rate Location/Type
08:38PM 33.9322 -118.4608 54° Northeast 186 214 1,800  Level Los Angeles Center
08:39PM 33.9072 -118.5378 249° West 247 284 3,300 1,920 Climbing Los Angeles Center
08:40PM 34.1301 -118.0731 59° Northeast  Level FlightAware Approximate
08:40PM 33.8506 -118.5967 221° Southwest 280 322 5,800  Level Los Angeles Center
08:41PM 34.1956 -117.9421 59° Northeast  Level FlightAware Approximate
08:41PM 33.8167 -118.5339 123° Southeast 269 310 8,300  Level Los Angeles Center
08:42PM 34.2612 -117.8110 59° Northeast  Level FlightAware Approximate
08:42PM 33.8792 -118.4719 39° Northeast 288 331 10,800  Level Los Angeles Center
08:43PM 34.3438 -117.6956 59° Northeast  Level FlightAware Approximate
08:43PM 33.9481 -118.4064 38° Northeast 331 381 12,400  Level Los Angeles Center
08:44PM 34.4116 -117.5696 54° Northeast  Level FlightAware Approximate
08:44PM 34.0050 -118.3058 56° Northeast 360 414 14,900  Level Los Angeles Center
08:45PM 34.0656 -118.2006 55° Northeast 376 433 17,300 2,520 Climbing Los Angeles Center
08:46PM 34.1400 -118.0678 56° Northeast 395 455 20,200 2,400 Climbing Los Angeles Center
08:47PM 34.2050 -117.9522 56° Northeast 412 474 22,300 2,040 Climbing Los Angeles Center
08:48PM 34.2719 -117.8339 56° Northeast 424 488 24,500 1,920 Climbing Los Angeles Center
08:49PM 34.3400 -117.7103 56° Northeast 437 503 26,300 1,680 Climbing Los Angeles Center
08:50PM 34.4044 -117.5947 56° Northeast 446 513 28,000 1,560 Climbing Los Angeles Center
08:51PM 34.4950 -117.4483 53° Northeast 458 527 29,600 1,500 Climbing Los Angeles Center
08:52PM 34.5797 -117.3292 49° Northeast 468 539 31,100 1,560 Climbing Los Angeles Center
08:53PM 34.6636 -117.2111 49° Northeast 467 537 32,900 1,680 Climbing Los Angeles Center
08:54PM 34.7447 -117.0953 50° Northeast 458 527 34,600 1,500 Climbing Los Angeles Center
08:55PM 34.8250 -116.9814 49° Northeast 451 519 36,000 1,380 Climbing Los Angeles Center
08:56PM 34.9219 -116.8461 49° Northeast 445 512 37,500 1,200 Climbing Los Angeles Center
08:57PM 34.9992 -116.7344 50° Northeast 437 503 38,600 720 Climbing Los Angeles Center
08:58PM 35.0758 -116.6242 50° Northeast 430 495 39,000 180 Climbing Los Angeles Center
08:59PM 35.1539 -116.5128 49° Northeast 432 497 39,000  Level Los Angeles Center
09:01PM 35.2303 -116.4014 50° Northeast 430 495 39,000  Level Los Angeles Center
09:02PM 35.3233 -116.2667 50° Northeast 432 497 39,000  Level Los Angeles Center
09:03PM 35.4019 -116.1542 49° Northeast 434 499 39,000  Level Los Angeles Center
09:04PM 35.4794 -116.0419 50° Northeast 433 498 39,000  Level Los Angeles Center
09:05PM 35.5728 -115.9078 49° Northeast 430 495 39,000  Level Los Angeles Center
09:06PM 35.6594 -115.7819 50° Northeast 428 493 39,000  Level Los Angeles Center
09:07PM 35.7217 -115.6594 58° Northeast 430 495 39,000  Level Los Angeles Center
09:08PM 35.7672 -115.5189 68° East 441 507 39,000  Level Los Angeles Center
09:09PM 35.8044 -115.4069 68° East 443 510 39,000  Level Los Angeles Center
09:10PM 35.8592 -115.2392 68° East 443 510 39,000  Level Los Angeles Center
09:11PM 35.9117 -115.0711 69° East 443 510 39,000  Level Los Angeles Center
09:12PM 35.9578 -114.9286 68° East 449 517 39,000  Level Los Angeles Center
09:13PM 36.0031 -114.7869 68° East 447 514 39,000  Level Los Angeles Center
09:14PM 36.0486 -114.6464 68° East 443 510 39,000  Level Los Angeles Center
09:15PM 36.0928 -114.5042 69° East 443 510 39,000  Level Los Angeles Center
09:16PM 36.1381 -114.3631 68° East 444 511 39,000  Level Los Angeles Center
09:17PM 36.1917 -114.1936 69° East 441 507 39,000  Level Los Angeles Center
09:18PM 36.2369 -114.0514 68° East 444 511 39,000  Level Los Angeles Center
09:19PM 36.2806 -113.9083 69° East 445 512 39,000  Level Los Angeles Center
09:20PM 36.3258 -113.7650 69° East 446 513 39,000  Level Los Angeles Center
09:21PM 36.3694 -113.6197 70° East 449 517 39,000  Level Los Angeles Center
09:22PM 36.4069 -113.5036 68° East 453 521 39,000  Level Los Angeles Center
09:23PM 36.4692 -113.2992 69° East 454 522 39,000  Level Los Angeles Center
09:24PM 36.5122 -113.1583 69° East 457 526 39,000  Level Los Angeles Center
09:25PM 36.5575 -113.0100 69° East 459 528 39,000  Level Los Angeles Center
09:26PM 36.6019 -112.8603 70° East 463 533 39,000  Level Los Angeles Center
09:28PM 36.6369 -112.7411 70° East 462 532 39,000  Level Los Angeles Center
09:29PM 36.6997 -112.5308 70° East 465 535 39,000  Level Los Angeles Center
09:30PM 36.7444 -112.3825 69° East 462 532 39,000  Level Los Angeles Center
09:31PM 36.7886 -112.2317 70° East 465 535 39,000  Level Los Angeles Center
09:32PM 36.8239 -112.1117 70° East 466 536 39,000  Level Denver Center
09:33PM 36.8756 -111.9311 70° East 464 534 39,000  Level Denver Center
09:34PM 36.9203 -111.7797 70° East 465 535 39,000  Level Denver Center
09:35PM 36.9728 -111.5969 70° East 468 539 39,000  Level Denver Center
09:36PM 37.0161 -111.4467 70° East 465 535 39,000  Level Denver Center
09:37PM 37.0578 -111.2994 70° East 455 524 39,000  Level Denver Center
09:38PM 37.0992 -111.1514 71° East 452 520 39,000  Level Denver Center
09:39PM 37.1417 -111.0008 70° East 459 528 39,000  Level Denver Center
09:40PM 37.1850 -110.8475 70° East 466 536 39,000  Level Denver Center
09:41PM 37.2278 -110.6944 71° East 466 536 39,000  Level Denver Center
09:42PM 37.2792 -110.5106 71° East 466 536 39,000  Level Denver Center
09:43PM 37.3200 -110.3561 72° East 469 540 39,000  Level Denver Center
09:44PM 37.3625 -110.2019 71° East 469 540 39,000  Level Denver Center
09:45PM 37.4075 -110.0375 71° East 464 534 39,000  Level Denver Center
09:46PM 37.4478 -109.8903 71° East 464 534 39,000  Level Denver Center
09:47PM 37.4881 -109.7400 71° East 471 542 39,000  Level Denver Center
09:48PM 37.5400 -109.5431 72° East 464 534 39,000  Level Denver Center
09:50PM 37.5914 -109.3489 71° East 458 527 39,000  Level Denver Center
09:51PM 37.6300 -109.2000 72° East 464 534 39,000  Level Denver Center
09:52PM 37.6631 -109.0756 71° East 467 537 39,000  Level Denver Center
09:53PM 37.7161 -108.8739 72° East 473 544 39,000  Level Denver Center
09:54PM 37.7672 -108.6683 72° East 480 552 39,000  Level Denver Center
09:55PM 37.8067 -108.5158 72° East 477 549 39,000  Level Denver Center
09:56PM 37.8392 -108.3908 72° East 471 542 39,000  Level Denver Center
09:57PM 37.8911 -108.1811 73° East 486 559 39,000  Level Denver Center
09:58PM 37.9311 -108.0258 72° East 485 558 39,000  Level Denver Center
09:59PM 37.9761 -107.8411 73° East 489 563 39,000  Level Denver Center
10:00PM 38.0158 -107.6839 72° East 489 563 39,000  Level Denver Center
10:01PM 38.0608 -107.4978 73° East 492 566 39,000  Level Denver Center
10:02PM 38.1006 -107.3356 73° East 490 564 39,000  Level Denver Center
10:03PM 38.1400 -107.1744 73° East 494 568 39,000  Level Denver Center
10:04PM 38.1806 -107.0083 73° East 493 567 39,000  Level Denver Center
10:05PM 38.2231 -106.8264 73° East 504 580 39,000  Level Denver Center
10:06PM 38.2558 -106.6894 73° East 507 583 39,000  Level Denver Center
10:07PM 38.3017 -106.4936 73° East 508 585 39,000  Level Denver Center
10:08PM 38.3414 -106.3200 74° East 511 588 39,000  Level Denver Center
10:09PM 38.3897 -106.1117 73° East 512 589 39,000  Level Denver Center
10:10PM 38.4303 -105.9381 73° East 512 589 39,000  Level Denver Center
10:11PM 38.4725 -105.7525 74° East 516 594 39,000  Level Denver Center
10:12PM 38.5117 -105.5758 74° East 515 593 39,000  Level Denver Center
10:13PM 38.5444 -105.4306 74° East 510 587 39,000  Level Denver Center
10:14PM 38.5894 -105.2289 74° East 505 581 39,000  Level Denver Center
10:15PM 38.6275 -105.0531 74° East 509 586 39,000  Level Denver Center
10:16PM 38.6667 -104.8803 74° East 506 582 39,000  Level Denver Center
10:17PM 38.7050 -104.7056 74° East 508 585 39,000  Level Denver Center
10:18PM 38.7431 -104.5294 74° East 510 587 39,000  Level Denver Center
10:19PM 38.7806 -104.3544 75° East 509 586 39,000  Level Denver Center
10:20PM 38.8242 -104.1525 74° East 503 579 39,000  Level Denver Center
10:21PM 38.8586 -103.9817 75° East 496 571 39,000  Level Denver Center
10:23PM 38.8950 -103.8078 75° East 502 578 39,000  Level Denver Center
10:24PM 38.9311 -103.6347 75° East 500 575 39,000  Level Denver Center
10:25PM 38.9733 -103.4306 75° East 504 580 39,000  Level Denver Center
10:26PM 39.0086 -103.2556 75° East 504 580 39,000  Level Denver Center
10:27PM 39.0447 -103.0806 75° East 503 579 39,000  Level Denver Center
10:28PM 39.0847 -102.8767 76° East 500 575 39,000  Level Denver Center
10:29PM 39.1081 -102.7589 76° East 503 579 39,000  Level Denver Center
10:30PM 39.1542 -102.5236 76° East 503 579 39,000  Level Denver Center
10:31PM 39.1867 -102.3578 76° East 500 575 39,000  Level Denver Center
10:32PM 39.2197 -102.1889 76° East 506 582 39,000  Level Denver Center
10:33PM 39.2578 -101.9906 76° East 509 586 39,000  Level Denver Center
10:34PM 39.2897 -101.8186 76° East 513 590 39,000  Level Denver Center
10:35PM 39.3328 -101.5947 76° East 520 598 39,000  Level Denver Center
10:36PM 39.3692 -101.3914 77° East 521 600 39,000  Level Denver Center
10:37PM 39.4019 -101.2167 76° East 524 603 39,000  Level Denver Center
10:38PM 39.4389 -101.0133 77° East 524 603 39,000  Level Denver Center
10:39PM 39.4694 -100.8419 77° East 516 594 39,000  Level Denver Center
10:40PM 39.5003 -100.6700 77° East 514 592 39,000  Level Denver Center
10:41PM 39.5356 -100.4658 77° East 520 598 39,000  Level Denver Center
10:42PM 39.5611 -100.3225 77° East 517 595 39,000  Level Denver Center
10:43PM 39.6011 -100.0939 77° East 513 590 39,000  Level Denver Center
10:44PM 39.6325 -99.9128 77° East 514 592 39,000  Level Denver Center
10:45PM 39.6622 -99.7319 78° East 515 593 39,000  Level Denver Center
10:46PM 39.6919 -99.5553 78° East 505 581 39,000  Level Denver Center
10:48PM 39.7189 -99.3881 78° East 480 552 39,000  Level Denver Center
10:49PM 39.7475 -99.2189 78° East 482 555 39,000  Level Denver Center
10:50PM 39.7756 -99.0492 78° East 482 555 39,000  Level Denver Center
10:51PM 39.8036 -98.8772 78° East 486 559 39,000  Level Denver Center
10:51PM 39.8253 -98.7403 78° East 489 563 39,000  Level Minneapolis Center
10:52PM 39.8536 -98.5678 78° East 490 564 39,000  Level Minneapolis Center
10:53PM 39.8803 -98.3925 79° East 492 566 39,000  Level Minneapolis Center
10:54PM 39.9067 -98.2211 79° East 489 563 39,000  Level Minneapolis Center
10:55PM 39.9383 -98.0181 78° East 481 554 39,000  Level Minneapolis Center
10:56PM 39.9589 -97.8806 79° East 481 554 39,000  Level Minneapolis Center
10:58PM 39.9903 -97.6739 79° East 485 558 39,000  Level Minneapolis Center
10:59PM 40.0208 -97.4658 79° East 487 560 39,000  Level Minneapolis Center
11:00PM 40.0436 -97.3092 79° East 485 558 39,000  Level Minneapolis Center
11:01PM 40.0675 -97.1406 79° East 477 549 39,000  Level Minneapolis Center
11:02PM 40.0925 -96.9719 79° East 476 548 39,000  Level Minneapolis Center
11:03PM 40.1225 -96.7664 79° East 479 551 39,000  Level Minneapolis Center
11:04PM 40.1461 -96.5942 80° East 482 555 39,000  Level Minneapolis Center
11:05PM 40.1697 -96.4231 80° East 480 552 39,000  Level Minneapolis Center
11:06PM 40.1931 -96.2528 80° East 479 551 39,000  Level Minneapolis Center
11:07PM 40.1997 -96.0844 87° East 469 540 39,000  Level Minneapolis Center
11:08PM 40.1992 -95.9136 90° East 469 540 39,000  Level Minneapolis Center
11:09PM 40.1972 -95.7422 91° East 472 543 39,000  Level Minneapolis Center
11:10PM 40.1964 -95.5731 90° East 469 540 39,000  Level Minneapolis Center
11:11PM 40.1950 -95.4033 91° East 469 540 39,000  Level Minneapolis Center
11:12PM 40.1942 -95.1978 90° East 471 542 39,000  Level Minneapolis Center
11:13PM 40.1919 -95.0258 91° East 473 544 39,000  Level Minneapolis Center
11:14PM 40.1892 -94.8544 91° East 473 544 39,000  Level Minneapolis Center
11:15PM 40.1875 -94.6844 91° East 470 541 39,000  Level Minneapolis Center
11:16PM 40.1839 -94.5047 91° East 464 534 39,000  Level Minneapolis Center
11:17PM 40.1822 -94.3386 91° East 461 531 39,000  Level Minneapolis Center
11:18PM 40.1786 -94.2369 93° East 462 532 39,000  Level Kansas City Center
11:19PM 40.1742 -94.0731 92° East 462 532 39,000  Level Kansas City Center
11:20PM 40.1700 -93.9069 92° East 463 533 39,000  Level Kansas City Center
11:21PM 40.1733 -93.7094 89° East 460 529 39,000  Level Kansas City Center
11:22PM 40.2044 -93.5464 76° East 465 535 39,000  Level Kansas City Center
11:23PM 40.2333 -93.3850 77° East 461 531 39,000  Level Kansas City Center
11:24PM 40.2611 -93.2219 77° East 462 532 39,000  Level Kansas City Center
11:25PM 40.2881 -93.0575 78° East 465 535 39,000  Level Kansas City Center
11:26PM 40.3169 -92.8897 77° East 464 534 39,000  Level Kansas City Center
11:27PM 40.3439 -92.7342 77° East 461 531 39,000  Level Kansas City Center
11:28PM 40.3733 -92.5456 78° East 465 535 39,000  Level Kansas City Center
11:29PM 40.4011 -92.3808 77° East 465 535 39,000 -180 Level Kansas City Center
11:30PM 40.4253 -92.2256 78° East 461 531 38,700 -600 Descending Kansas City Center
11:31PM 40.4511 -92.0614 78° East 461 531 37,800 -960 Descending Kansas City Center
11:32PM 40.4767 -91.8972 78° East 462 532 36,800 -1,020 Descending Kansas City Center
11:33PM 40.5025 -91.7300 78° East 468 539 35,800 -1,080 Descending Kansas City Center
11:34PM 40.5344 -91.5297 78° East 471 542 34,700 -1,140 Descending Kansas City Center
11:35PM 40.5453 -91.4617 78° East 474 545 34,100 -1,140 Descending Chicago Center
11:36PM 40.5933 -91.2886 70° East 471 542 33,000 -600 Descending Chicago Center
11:37PM 40.6475 -91.1300 66° East 474 545 33,000  Level Chicago Center
11:38PM 40.7017 -90.9708 66° East 476 548 33,000  Level Chicago Center
11:39PM 40.7558 -90.8094 66° East 479 551 33,000  Level Chicago Center
11:40PM 40.8106 -90.6481 66° East 481 554 33,000  Level Chicago Center
11:41PM 40.8658 -90.4842 66° East 484 557 33,000 -1,020 Level Chicago Center
11:42PM 40.9217 -90.3189 66° East 488 562 31,000 -2,100 Descending Chicago Center
11:43PM 40.9750 -90.1514 67° East 492 566 28,800 -2,280 Descending Chicago Center
11:44PM 41.0314 -89.9842 66° East 485 558 26,400 -2,340 Descending Chicago Center
11:45PM 41.0828 -89.8275 66° East 461 531 24,100 -2,340 Descending Chicago Center
11:46PM 41.1314 -89.6789 66° East 439 505 21,700 -2,340 Descending Chicago Center
11:47PM 41.1803 -89.5364 65° Northeast 422 486 19,400 -2,220 Descending Chicago Center
11:48PM 41.2350 -89.4056 61° Northeast 407 468 17,300 -2,100 Descending Chicago Center
11:49PM 41.2869 -89.2769 62° Northeast 394 453 15,200 -2,160 Descending Chicago Center
11:50PM 41.3392 -89.1406 63° Northeast 380 437 13,000 -1,920 Descending Chicago Center
11:51PM 41.3867 -89.0214 62° Northeast 368 423 11,400 -1,020 Descending Chicago Center
11:52PM 41.4342 -88.9061 61° Northeast 360 414 11,000 -240 Descending Chicago Center
11:53PM 41.4797 -88.7894 62° Northeast 358 412 11,000  Level Chicago Center
11:54PM 41.5256 -88.6728 62° Northeast 356 410 11,000  Level Chicago Center
11:55PM 41.5711 -88.5567 62° Northeast 356 410 11,000  Level Chicago Center
11:56PM 41.6208 -88.4422 60° Northeast 359 413 11,000 -60 Level Chicago Center
11:57PM 41.6906 -88.3258 51° Northeast 327 376 10,900 -840 Descending Chicago Center
11:58PM 41.7483 -88.2431 47° Northeast 307 353 9,400 -1,500 Descending Chicago Center
11:59PM 41.8075 -88.1639 45° Northeast 302 348 7,900 -1,200 Descending Chicago Center
12:00AM 41.8911 -88.1619 North 303 349 7,000 -480 Descending Chicago Center
12:01AM 41.9719 -88.1669 357° North 293 337 7,000 -300 Level Chicago Center
12:02AM 42.0317 -88.1961 340° North 237 273 6,400 -900 Descending Chicago Center
12:03AM 42.0858 -88.2311 334° Northwest 222 255 5,300 -1,020 Descending Chicago Center
12:04AM 42.1306 -88.1853 37° Northeast 203 234 4,400 -840 Descending Chicago Center
12:05AM 42.1450 -88.1350 69° East 170 196 3,700 -600 Descending Chicago Center
12:06AM 42.1258 -88.0844 117° Southeast 156 180 3,300 -480 Descending Chicago Center
12:07AM 42.1000 -88.0500 135° Southeast 156 180 3,000 -540 Descending Chicago TRACON
12:07AM 42.0667 -88.0333 160° South 155 178 2,600 -540 Descending Chicago TRACON